Weather History for Siren, WI

Change the Weather History Date:

Sunday, May 26, 2013

  Actual Average Record
Temperature  
Mean Temperature 53 °F -  
Max Temperature 69 °F - - ()
Min Temperature 37 °F - - ()
Degree Days  
Heating Degree Days 12    
Growing Degree Days 3 (Base 50)    
Moisture  
Dew Point 35 °F    
Average Humidity 51    
Maximum Humidity 95    
Minimum Humidity 22    
Precipitation  
Precipitation 0.00 in - - ()
Sea Level Pressure  
Sea Level Pressure 30.21 in    
Wind  
Wind Speed 4 mph (SE)    
Max Wind Speed 15 mph    
Max Gust Speed 23 mph    
Visibility 10 miles    
Events      
T = Trace of Precipitation, MM = Missing Value Source: NWS Daily Summary

Daily Weather History Graph

Daily Weather History Graph

Search for Another Location

Airport:

Trip Planner

Search our weather history database for the weather conditions in past years. The results will help you decide how hot, cold, wet, or windy it might be!

Date:

Astronomy

May. 26, 2013 Rise Set
Actual Time 5:26 AM CDT 8:46 PM CDT
Civil Twilight 4:50 AM CDT 9:23 PM CDT
Nautical Twilight 4:02 AM CDT 10:11 PM CDT
Astronomical Twilight 3:02 AM CDT 11:12 PM CDT
Moon 10:33 PM CDT (5/26) 6:57 AM CDT (5/26)
Length of Visible Light 16h 33m
Length of Day
15h 20m
Waning Gibbous, 96% of the Moon is Illuminated
May 26
Waning Gibbous
May 31
Last Quarter
Jun 8
New
Jun 16
First Quarter
Jun 23
Full

Hourly Weather History & Observations

Time (CDT) Temp. Windchill Dew Point Humidity Pressure Visibility Wind Dir Wind Speed Gust Speed Precip Events Conditions
12:15 AM 43.3 °F - 40.1 °F 88% 30.27 in 10.0 mi Calm Calm - N/A   Clear
12:35 AM 43.9 °F - 40.8 °F 89% 30.27 in 10.0 mi Calm Calm - N/A   Clear
12:55 AM 43.0 °F - 39.2 °F 86% 30.26 in 10.0 mi Calm Calm - N/A   Clear
1:15 AM 42.8 °F - 39.0 °F 86% 30.26 in 10.0 mi Calm Calm - N/A   Clear
1:35 AM 40.6 °F - 38.1 °F 91% 30.25 in 10.0 mi Calm Calm - N/A   Clear
1:55 AM 40.3 °F - 38.1 °F 92% 30.26 in 10.0 mi Calm Calm - N/A   Clear
2:15 AM 40.1 °F - 37.2 °F 89% 30.26 in 10.0 mi Calm Calm - N/A   Clear
2:35 AM 39.2 °F - 37.0 °F 92% 30.26 in 10.0 mi Calm Calm - N/A   Clear
2:55 AM 39.7 °F - 38.1 °F 94% 30.25 in 10.0 mi Calm Calm - N/A   Clear
3:15 AM 37.8 °F - 36.3 °F 95% 30.26 in 10.0 mi Calm Calm - N/A   Clear
3:35 AM 38.8 °F - 36.9 °F 93% 30.25 in 10.0 mi Calm Calm - N/A   Clear
3:55 AM 44.4 °F 41.2 °F 40.1 °F 85% 30.22 in 10.0 mi East 5.8 mph - N/A   Clear
4:15 AM 44.8 °F 43.3 °F 39.6 °F 82% 30.23 in 10.0 mi East 3.5 mph - N/A   Clear
4:35 AM 44.6 °F - 39.2 °F 81% 30.24 in 10.0 mi Calm Calm - N/A   Clear
4:55 AM 44.2 °F - 38.8 °F 81% 30.26 in 10.0 mi Calm Calm - N/A   Clear
5:15 AM 40.3 °F - 37.4 °F 89% 30.26 in 10.0 mi Calm Calm - N/A   Scattered Clouds
5:35 AM 40.5 °F - 38.3 °F 92% 30.29 in 10.0 mi Calm Calm - N/A   Scattered Clouds
5:55 AM 41.4 °F 39.4 °F 39.0 °F 91% 30.29 in 10.0 mi NNE 3.5 mph - N/A   Mostly Cloudy
6:15 AM 43.5 °F - 40.1 °F 88% 30.28 in 10.0 mi Calm Calm - N/A   Overcast
6:35 AM 46.4 °F 44.3 °F 39.0 °F 75% 30.27 in 10.0 mi East 4.6 mph - N/A   Mostly Cloudy
6:55 AM 47.3 °F - 39.6 °F 74% 30.28 in 10.0 mi East 3.5 mph - N/A   Overcast
7:15 AM 48.2 °F - 40.3 °F 74% 30.26 in 10.0 mi East 4.6 mph - N/A   Overcast
7:35 AM 49.3 °F - 40.6 °F 72% 30.26 in 10.0 mi East 3.5 mph - N/A   Overcast
7:55 AM 51.8 °F - 41.2 °F 67% 30.27 in 10.0 mi SE 5.8 mph - N/A   Overcast
8:15 AM 53.8 °F - 39.4 °F 58% 30.27 in 10.0 mi SE 8.1 mph - N/A   Overcast
8:35 AM 55.0 °F - 38.3 °F 53% 30.28 in 10.0 mi SE 6.9 mph - N/A   Overcast
8:55 AM 56.5 °F - 37.0 °F 48% 30.27 in 10.0 mi SE 9.2 mph - N/A   Overcast
9:15 AM 57.4 °F - 32.7 °F 39% 30.25 in 10.0 mi ESE 9.2 mph - N/A   Overcast
9:35 AM 57.9 °F - 30.0 °F 35% 30.24 in 10.0 mi SE 13.8 mph 18.4 mph N/A   Scattered Clouds
9:55 AM 59.0 °F - 27.1 °F 30% 30.24 in 10.0 mi SE 11.5 mph 17.3 mph N/A   Clear
10:15 AM 60.6 °F - 28.9 °F 30% 30.25 in 10.0 mi SSE 11.5 mph - N/A   Scattered Clouds
10:35 AM 60.6 °F - 28.6 °F 30% 30.24 in 10.0 mi SE 10.4 mph 17.3 mph N/A   Mostly Cloudy
10:55 AM 61.7 °F - 27.9 °F 28% 30.23 in 10.0 mi SSE 11.5 mph 20.7 mph N/A   Scattered Clouds
11:15 AM 62.8 °F - 27.7 °F 27% 30.23 in 10.0 mi ESE 11.5 mph 18.4 mph N/A   Clear
11:35 AM 63.3 °F - 27.5 °F 26% 30.23 in 10.0 mi SSE 13.8 mph - N/A   Clear
11:55 AM 63.7 °F - 27.7 °F 26% 30.22 in 10.0 mi East 6.9 mph 16.1 mph N/A   Scattered Clouds
12:15 PM 64.8 °F - 25.3 °F 22% 30.22 in 10.0 mi ESE 13.8 mph 21.9 mph N/A   Scattered Clouds
12:35 PM 65.1 °F - 27.1 °F 24% 30.22 in 10.0 mi SE 11.5 mph 17.3 mph N/A   Mostly Cloudy
12:55 PM 66.0 °F - 27.1 °F 23% 30.21 in 10.0 mi ESE 12.7 mph 20.7 mph N/A   Mostly Cloudy
1:15 PM 65.3 °F - 28.8 °F 25% 30.21 in 10.0 mi SE 10.4 mph 17.3 mph N/A   Overcast
1:35 PM 65.1 °F - 28.4 °F 25% 30.21 in 10.0 mi SE 9.2 mph - N/A   Overcast
1:55 PM 65.8 °F - 30.2 °F 26% 30.21 in 10.0 mi SSE 9.2 mph - N/A   Mostly Cloudy
2:15 PM 66.9 °F - 31.3 °F 27% 30.19 in 10.0 mi SE 12.7 mph 17.3 mph N/A   Mostly Cloudy
2:35 PM 65.8 °F - 32.0 °F 28% 30.18 in 10.0 mi ESE 9.2 mph - N/A   Mostly Cloudy
2:55 PM 67.1 °F - 32.5 °F 28% 30.17 in 10.0 mi East 9.2 mph 17.3 mph N/A   Overcast
3:15 PM 68.4 °F - 32.0 °F 26% 30.16 in 10.0 mi SE 15.0 mph 23.0 mph N/A   Scattered Clouds
3:35 PM 68.5 °F - 33.3 °F 27% 30.16 in 10.0 mi SSE 11.5 mph 18.4 mph N/A   Clear
3:55 PM 68.9 °F - 34.0 °F 28% 30.15 in 10.0 mi SE 12.7 mph 20.7 mph N/A   Scattered Clouds
4:15 PM 69.3 °F - 33.6 °F 27% 30.15 in 10.0 mi ESE 11.5 mph 23.0 mph N/A   Clear
4:35 PM 69.3 °F - 34.0 °F 27% 30.14 in 10.0 mi South 10.4 mph 17.3 mph N/A   Scattered Clouds
4:55 PM 67.8 °F - 31.8 °F 26% 30.15 in 10.0 mi SSE 15.0 mph 21.9 mph N/A   Mostly Cloudy
5:15 PM 67.3 °F - 32.0 °F 27% 30.14 in 10.0 mi South 11.5 mph 18.4 mph N/A   Overcast
5:35 PM 66.9 °F - 32.0 °F 27% 30.13 in 10.0 mi SSE 10.4 mph 17.3 mph N/A   Overcast
5:55 PM 66.6 °F - 33.6 °F 29% 30.13 in 10.0 mi SSE 10.4 mph - N/A   Overcast
6:15 PM 66.2 °F - 34.5 °F 31% 30.14 in 10.0 mi South 9.2 mph - N/A   Overcast
6:35 PM 65.5 °F - 34.5 °F 32% 30.13 in 10.0 mi SSE 6.9 mph - N/A   Overcast
6:55 PM 65.3 °F - 35.2 °F 33% 30.14 in 10.0 mi SSE 8.1 mph - N/A   Overcast
7:15 PM 64.6 °F - 36.7 °F 36% 30.14 in 10.0 mi SSE 5.8 mph - N/A   Overcast
7:35 PM 64.4 °F - 36.7 °F 36% 30.15 in 10.0 mi SSE 6.9 mph - N/A   Overcast
7:55 PM 63.5 °F - 37.6 °F 38% 30.16 in 10.0 mi SSE 6.9 mph - N/A   Overcast
8:15 PM 63.1 °F - 36.5 °F 37% 30.15 in 10.0 mi SSE 6.9 mph - N/A   Overcast
8:35 PM 63.0 °F - 36.9 °F 38% 30.15 in 10.0 mi SSE 8.1 mph - N/A   Overcast
8:55 PM 62.6 °F - 37.4 °F 39% 30.14 in 10.0 mi SSE 5.8 mph - N/A   Overcast
9:15 PM 62.1 °F - 37.4 °F 40% 30.15 in 10.0 mi SE 5.8 mph - N/A   Overcast
9:35 PM 61.7 °F - 37.6 °F 41% 30.14 in 10.0 mi SE 5.8 mph - N/A   Overcast
9:55 PM 61.0 °F - 37.9 °F 42% 30.15 in 10.0 mi SSE 4.6 mph - N/A   Overcast
10:15 PM 60.8 °F - 38.7 °F 44% 30.15 in 10.0 mi Calm Calm - N/A   Overcast
10:35 PM 60.3 °F - 38.7 °F 45% 30.14 in 10.0 mi Calm Calm - N/A   Overcast
10:55 PM 59.9 °F - 38.8 °F 46% 30.14 in 10.0 mi ESE 3.5 mph - N/A   Overcast
11:15 PM 59.5 °F - 39.2 °F 47% 30.14 in 10.0 mi SE 4.6 mph - N/A   Overcast
11:35 PM 58.6 °F - 39.4 °F 49% 30.13 in 10.0 mi ESE 4.6 mph - N/A   Scattered Clouds
11:55 PM 57.6 °F - 39.4 °F 51% 30.09 in 10.0 mi East 5.8 mph - N/A   Clear